Simultaneous Nadir Overpasses (SNOs) Predictions

Prediction of SNOs between FY3D and NOAA-19 Satellite Orbit:

Table of predicted SNOs for the next 14.0 days since TLE Epoch: 5/21/2022
Index Date (FY3D) Time (FY3D) Lat,Lon (FY3D) SZA (FY3D ) Date (NOAA-19) Time (NOAA-19) Lat,Lon (NOAA-19) SZA (NOAA-19 ) Distance(km) Time Diff (sec)
1 06/01/2022 23:58:17 77.53, 163.43 55.88 06/01/2022 23:57:06 77.53, 163.52 55.89 2.05 71
2 06/02/2022 00:49:03 -77.54, -29.30 124.12 06/02/2022 00:48:03 -77.52, -29.25 124.12 1.83 60
3 06/02/2022 01:39:48 77.51, 138.12 55.85 06/02/2022 01:39:06 77.53, 138.00 55.88 3.36 42
4 06/02/2022 02:30:34 -77.52, -54.61 124.15 06/02/2022 02:30:03 -77.52, -54.77 124.13 3.82 31
5 06/02/2022 03:21:20 77.54, 112.62 55.87 06/02/2022 03:21:05 77.56, 112.69 55.90 3.27 15
6 06/02/2022 04:12:06 -77.55, -80.12 124.12 06/02/2022 04:12:02 -77.56, -80.08 124.12 1.20 4
7 06/02/2022 05:02:52 77.57, 87.11 55.90 06/02/2022 05:03:05 77.56, 87.18 55.88 1.62 13
8 06/02/2022 05:53:38 -77.58,-105.62 124.10 06/02/2022 05:54:02 -77.55,-105.60 124.13 2.48 24
9 06/02/2022 06:44:23 77.55, 61.81 55.87 06/02/2022 06:45:05 77.56, 61.66 55.87 3.51 42
10 06/02/2022 07:35:09 -77.56,-130.93 124.13 06/02/2022 07:36:01 -77.59,-130.91 124.12 3.26 52
11 06/02/2022 08:25:55 77.58, 36.30 55.89 06/02/2022 08:27:04 77.59, 36.35 55.89 2.26 69
12 06/02/2022 09:16:47 -77.83,-157.64 123.79 06/02/2022 09:17:56 -77.78,-155.39 124.01 53.19 69



Historial Predications of SNOs between FY3D and NOAA-19
